This demonstration page uses our WeatherBlox Daily Observations layout. Learn more.

Left ArrowRight Arrow

44.8408, -93.29828

Hourly Observations for May 22, 2015

Temp ( °F °C ) Dew Point ( °F °C ) Humidity (%) Winds ( mph kmh ) Pressure ( in mb ) Visibility ( mi km ) Precip ( " mm )
12:53 am 00:53 Clear 54 12.2 39 3.9 57 57 NNW 7 11 30.10 1019 10 16 0.00 0.00
1:53 am 01:53 Clear 56 13.3 35 1.7 46 46 NNW 5 7 30.11 1020 10 16 0.00 0.00
2:53 am 02:53 Clear 54 12.2 34 1.1 47 47 WNW 3 6 30.13 1020 10 16 0.00 0.00
3:53 am 03:53 Clear 52 11.1 36 2.2 55 55 Calm 30.14 1021 10 16 0.00 0.00
4:53 am 04:53 Clear 49 9.4 37 2.8 64 64 Calm 30.15 1021 10 16 0.00 0.00
5:53 am 05:53 Sunny 50 10 36 2.2 59 59 Calm 30.16 1022 10 16 0.00 0.00
6:53 am 06:53 Sunny 51 10.6 39 3.9 64 64 Calm 30.19 1022 10 16 0.00 0.00
7:53 am 07:53 Sunny 56 13.3 39 3.9 53 53 VRB 3 6 30.20 1023 10 16 0.00 0.00
8:53 am 08:53 Sunny 60 15.6 39 3.9 46 46 NE 5 7 30.19 1023 10 16 0.00 0.00
9:53 am 09:53 Sunny 65 18.3 37 2.8 36 36 Calm 30.21 1023 10 16 0.00 0.00
10:53 am 10:53 Sunny 67 19.4 34 1.1 30 30 Calm 30.22 1023 10 16 0.00 0.00
11:53 am 11:53 Sunny 68 20 33 0.6 27 27 SSE 5 7 30.22 1024 10 16 0.00 0.00
12:53 pm 12:53 Sunny 70 21.1 34 1.1 27 27 VRB 3 6 30.22 1023 10 16 0.00 0.00
1:53 pm 13:53 Sunny 72 22.2 34 1.1 25 25 N 5 7 30.21 1023 10 16 0.00 0.00
2:53 pm 14:53 Mostly Sunny 72 22.2 33 0.6 24 24 SSE 7 11 30.21 1023 10 16 0.00 0.00
3:53 pm 15:53 Mostly Sunny 72 22.2 33 0.6 24 24 VRB 3 6 30.20 1023 10 16 0.00 0.00
4:53 pm 16:53 Partly Cloudy 74 23.3 35 1.7 24 24 VRB 7 11 30.18 1022 10 16 0.00 0.00
5:53 pm 17:53 Partly Cloudy 74 23.3 35 1.7 24 24 SSE 6 9 30.17 1022 10 16 0.00 0.00
6:53 pm 18:53 Mostly Cloudy 72 22.2 34 1.1 25 25 SE 6 9 30.18 1022 10 16 0.00 0.00
7:53 pm 19:53 Mostly Cloudy 73 22.8 32 0 22 22 VRB 5 7 30.17 1022 10 16 0.00 0.00
8:53 pm 20:53 Mostly Cloudy 70 21.1 34 1.1 27 27 SSE 3 6 30.18 1022 10 16 0.00 0.00
9:53 pm 21:53 Mostly Cloudy 67 19.4 37 2.8 33 33 NE 3 6 30.19 1022 10 16 0.00 0.00
10:53 pm 22:53 Mostly Cloudy 63 17.2 38 3.3 40 40 SE 6 9 30.20 1023 10 16 0.00 0.00
11:53 pm 23:53 Cloudy 61 16.1 39 3.9 44 44 SE 5 7 30.19 1023 10 16 0.00 0.00

Powered by AerisWeather